NIMBUS 2 DEB, 28204

Orbit data source: Space-Track

NIMBUS 2 DEB, 28204 is space debris in SSO originally from a launch on Sun, 15 May 1966 UTC launched from the Air Force Western Test Range (AFWTR). Debris objects in space refer to the collection of defunct objects orbiting the Earth. Examples of debris include non-operational satellites, rocket bodies, and fragments generated from explosions, collisions, or faulty payload assembly.

Loading next visibility...
Identifier
28204, 1966-040S
Orbit
SSO
Country
Flag of USUS
Related business
Manufacturer
Unknown
Mission
Spacecraft
Bus & Motor
Unknown
Mass
Unknown
Launch date (UTC)
1966-05-15 (60 years ago)
Launch vehicle
Unknown
Launch site
Air Force Western Test Range (AFWTR)
Object type
Payload
Rocket body
Debris
Shape & HBR
Unknown shape, 0.1 m
Radar Cross Section
Small (<0.1 m²)

Expand to show TLE details & history
Last TLE update: 3 days ago

TLE from 3 days ago
0 NIMBUS 2 DEB
1 28204U 66040S   26171.28480573  .00002941  00000-0  29821-2 0  9996
2 28204 100.1846  98.7080 0041666   4.0295 147.4940 13.77544502631099
Epoch: 2026-06-20T06:50Z
TLE epoch observation values (Epoch: 2026-06-20T06:50:07.215Z)
Latitude
27.7796°
Longitude
-86.92144°
Altitude
1,001.79 km
Speed
7.34 km/s
True Right ascension
18h 56m 26s
True Declination
27° 38' 34"
Sunlit
Object was in full shadow at epoch
Visualization orbit readout
Latitude
Unknown
Longitude
Unknown
Altitude
Unknown
Speed
Unknown
Apparent Right ascension
Unknown
Apparent Declination
Unknown
Sunlit
N/A
Visualization observer readout
Local Sidereal Time
08:39:27
Azimuth
Unknown
Elevation
Unknown
Doppler factor
Unknown
Orbital elements
Apogee altitude
1,000.516 km
Perigee altitude
939.283 km
Semi-major axis
7,348.036 km
Eccentricity
0.00417
Inclination
100.1846°
RAAN
98.708°
Arg. of periapsis
4.0295°
True anomaly
147.74946°
Mean anomaly
147.494°
Eccentric anomaly
147.62184°
Mean motion
3.44577 °/min
Orbital period
104.48 mins
BSTAR
0.0029821
Loading maneuver chart data...
Computing Atmospheric mass density...
Loading historical data...
Loading historical data...
Loading historical data...
Loading historical data...
Loading historical data...
Loading historical data...
Loading historical data...

Documentation

Showing up to 5 results
|